User: anonymous   Login
Location: Unspecified
(0.0000°N, 0.0000°E)
Time: 12:42:22
(UTC+00:00)
Language:

ARGOS - Orbit

View from above orbital plane
View from above orbital plane
View from above satellite
View from above satellite

Ground track
Ground track

The orbit data is extracted from the following two-line orbital elements,

1 25634U 99008A   24169.91305060  .00000125  00000-0  78578-4 0  9999
2 25634  98.4183 156.6946 0010199   2.6008 357.5220 14.19673999310813
Epoch (UTC): 17 June 2024 21:54:47
Eccentricity: 0.0010199
inclination: 98.4183°
perigee height: 819 km
apogee height: 834 km
right ascension of ascending node: 156.6946°
argument of perigee: 2.6008°
revolutions per day: 14.19673999
mean anomaly at epoch: 357.5220°
orbit number at epoch: 31081

The dashed part of the orbit path shows where the satellite is in the earth's shadow,  

DLR